Overview Statistics Trail Chart Weather Telemetry Raw packets
 

This is the latest recevied weather packets stored in our database for station/object SM4JDW-10. If no packets are shown the sender has not sent any weather packets the latest 10 day(s).

<< 1 2 3 4 5 >>
Time Temp. Humidity Pressure Rain* Wind** Luminosity Snow
1788592091 11.11° C 67% 996.3 hPa - - - -
1788590291 10.56° C 68% 996.1 hPa - - - -
1788588491 10.56° C 68% 996 hPa - - - -
1788586691 10.56° C 74% 995.8 hPa - - - -
1788584891 10.56° C 73% 995.6 hPa - - - -
1788583091 10.56° C 73% 995.4 hPa - - - -
1788581291 10.56° C 72% 995.4 hPa - - - -
1788579491 10.56° C 73% 995.3 hPa - - - -
1788577691 11.11° C 73% 995.1 hPa - - - -
1788575891 11.11° C 72% 995 hPa - - - -
1788574090 11.11° C 71% 994.7 hPa - - - -
1788572291 11.67° C 71% 994.6 hPa - - - -
1788570490 11.11° C 71% 994.5 hPa - - - -
1788568690 11.67° C 71% 994.3 hPa - - - -
1788566890 12.22° C 71% 994.3 hPa - - - -
1788565090 12.22° C 69% 994.2 hPa - - - -
1788561490 12.22° C 69% 994.4 hPa - - - -
1788559690 12.78° C 66% 994.4 hPa - - - -
1788557890 12.78° C 67% 994.4 hPa - - - -
1788556090 12.78° C 67% 994.5 hPa - - - -
1788554290 13.33° C 65% 994.5 hPa - - - -
1788552489 13.33° C 64% 994.5 hPa - - - -
1788550689 13.89° C 62% 994.5 hPa - - - -
1788548889 14.44° C 62% 994.6 hPa - - - -
1788547089 14.44° C 61% 994.4 hPa - - - -

* Rain since midnight (hover to see other rain measurements)
** Current wind speed in m/s (hover to see current wind gust speed)